Terminal Aerodrome Forecast
Issued by NWS Denver/Boulder, CO

Home | Current Version | Previous Version | Text Only | Print | Product List | Glossary On
Versions: 1 2 3 4 5 6 7 8 9 10 11 12 13 14 15 16 17 18 19 20 21 22 23 24 25 26 27 28 29 30 31 32 33 34 35 36 37 38 39 40 41 42 43 44 45 46 47 48 49 50
000
FTUS45 KBOU 141741
TAFDEN
TAF
KDEN 141741Z 1418/1524 35011KT P6SM SCT120 BKN220
      TEMPO 1419/1420 29013G22KT
     FM142000 32017G27KT P6SM FEW090 SCT120 BKN200
     FM150200 27012KT P6SM SCT130 BKN200
     FM150500 24008KT P6SM SCT130 BKN220
     FM151000 20007KT P6SM FEW140 SCT220
     FM151800 30015G30KT P6SM SCT130 BKN200=

USA.gov is the U.S. government's official web portal to all federal, state and local government web resources and services.